Location: ????
(30.2663°N, 31.2484°E)
Time: 21:38:37
(UTC+00:00)

Cosmos 1461 - Visible Passes

Search period start: 30 March 2023 00:00
Search period end: 09 April 2023 00:00
Orbit: 492 x 643 km, 65.0° (Epoch: 29 March)

Date Brightness Start Highest point End Pass type
(mag) Time Alt. Az. Time Alt. Az. Time Alt. Az.
30 Mar 5.9 00:52:01 13° NNE 00:52:01 13° NNE 00:52:32 10° NNE visible
31 Mar 6.0 00:53:01 12° NNE 00:53:01 12° NNE 00:53:19 10° NNE visible
01 Apr 6.1 00:53:55 10° NNE 00:53:55 10° NNE 00:53:56 10° NNE visible
